sat.trackr.live / text

‹ back to catalog

STARLINK-34253

NORAD 64685 · 2025-139X

PAYLOAD ACTIVE UNKNOWN

§ Identity

Operator
Country
US
Launch date
2025-06-28
Launch site
AFETR
Launch vehicle
Mass (kg)
RCS (m²)

Purposes: comms

External: N2YO · Heavens-Above · Gunter

§ Orbital elements

Epoch: 2026-09-20T09:39:58.918464Z

Period
93.85 min
Inclination
53.1613°
Eccentricity
0.0002013
Mean motion
15.34406010 rev/d
Perigee alt
461.3 km
Apogee alt
464.1 km
Semi-major
6,840.8 km
B*
3.5168e-4
RAAN
298.4942°
Arg perigee
84.8121°
Mean anomaly
275.3112°
Rev number
7,015

§ Raw data

STARLINK-342531 64685U 25139X   26263.40276526  .00011526  00000+0  35168-3 0  99902 64685  53.1613 298.4942 0002013  84.8121 275.3112 15.34406010 70156

JSON: /api/v1/satellites/64685 · /tle

For live sub-satellite position, see the globe view (requires WebGL).

§ Visibility from observer

Set your observer location to see the next 7 days of passes ≥ 10°. The values pass through the URL so the page stays shareable.

No JS? Fill the form by hand. The geolocation button needs JavaScript.